カタログに戻る

OPTUS 10

運用中通信GEO
NORAD 40146·PAYLOAD·🇦🇺 Australia

打ち上げ Sep 11, 2014 から Guiana Space Centre

Loading…

TLE

最新Source: Space-Track

元期: Sep 14, 2026, 15:10 UTC

1 40146U 14054A   26257.63218197 -.00000155  00000-0  00000-0 0  9990
2 40146   0.1128  15.0221 0002028 155.1958 206.9931  1.00271327 43927

AllMySatでOPTUS 10をリアルタイム追跡

Download on the App Store